Location: New Plymouth
(39.0670°S, 174.0830°E)
Time: 09:52:35
(UTC+12:00)

ISS - Pass Details

Date: 23 May 2021
Orbit: 417 x 422 km, 51.6° (Epoch: 17 June)

Event Time Altitude Azimuth Distance (km) Brightness Sun altitude
Exits shadow 04:56:02 14° 48° (NE) 1,283 -0.8 -28.9°
Maximum altitude 04:56:12 14° 51° (NE) 1,282 -0.7 -28.8°
Drops below altitude 10° 04:58:07 10° 85° (E) 1,525 0.0 -28.5°
Sets 05:00:57 0° 111° (ESE) 2,399 1.1 -27.9°
